When you browse on this site, cookies collect data to enhance your experience and personalize the content and advertising you see.
Visit our Privacy Policy to learn more. By continuing to use the site, you agree to this use of cookies and data.

Tiempo cada hora Lepe

Hoy, 13 Julio, Lunes

Tiempo Temperatura Precipitaciones Viento Presión Humedad
00:00 +27°C° 0 mm 4 mps 759 mmHg 49%
01:00 +26°C° 0 mm 3 mps 759 mmHg 54%
02:00 +25°C° 0 mm 3 mps 758 mmHg 58%
03:00 +24°C° 0 mm 2 mps 758 mmHg 62%
04:00 +24°C° 0 mm 2 mps 758 mmHg 66%
05:00 +24°C° 0 mm 2 mps 759 mmHg 69%
06:00 +24°C° 0 mm 2 mps 759 mmHg 72%
07:00 +27°C° 0 mm 3 mps 759 mmHg 65%
08:00 +29°C° 0 mm 3 mps 759 mmHg 58%
09:00 +32°C° 0 mm 4 mps 760 mmHg 50%
10:00 +34°C° 0 mm 3 mps 759 mmHg 45%
11:00 +36°C° 0 mm 3 mps 759 mmHg 40%
12:00 +37°C° 0 mm 3 mps 759 mmHg 34%
13:00 +38°C° 0 mm 4 mps 758 mmHg 31%
14:00 +40°C° 0 mm 4 mps 758 mmHg 28%
15:00 +41°C° 0 mm 5 mps 757 mmHg 25%
16:00 +41°C° 0 mm 6 mps 757 mmHg 25%
17:00 +40°C° 0 mm 6 mps 757 mmHg 25%
18:00 +40°C° 0 mm 7 mps 757 mmHg 25%
19:00 +38°C° 0 mm 6 mps 757 mmHg 29%
20:00 +35°C° 0 mm 6 mps 757 mmHg 33%
21:00 +33°C° 0 mm 6 mps 757 mmHg 37%
22:00 +32°C° 0 mm 5 mps 757 mmHg 40%
23:00 +30°C° 0 mm 5 mps 757 mmHg 43%

Mañana, 14 Julio, Martes

Tiempo Temperatura Precipitaciones Viento Presión Humedad
00:00 +29°C° 0 mm 4 mps 757 mmHg 46%
01:00 +27°C° 0 mm 4 mps 757 mmHg 51%
02:00 +26°C° 0 mm 3 mps 756 mmHg 56%
03:00 +25°C° 0 mm 3 mps 756 mmHg 61%
04:00 +25°C° 0 mm 3 mps 756 mmHg 63%
05:00 +25°C° 0 mm 3 mps 756 mmHg 65%
06:00 +24°C° 0 mm 3 mps 756 mmHg 68%
07:00 +27°C° 0 mm 3 mps 756 mmHg 59%
08:00 +29°C° 0 mm 3 mps 756 mmHg 50%
09:00 +32°C° 0 mm 4 mps 756 mmHg 42%
10:00 +34°C° 0 mm 4 mps 756 mmHg 38%
11:00 +35°C° 0 mm 4 mps 756 mmHg 34%
12:00 +37°C° 0 mm 4 mps 755 mmHg 30%
13:00 +37°C° 0 mm 4 mps 755 mmHg 29%
14:00 +37°C° 0 mm 4 mps 754 mmHg 28%
15:00 +39°C° 0 mm 5 mps 754 mmHg 27%
16:00 +37°C° 0 mm 5 mps 754 mmHg 28%
17:00 +37°C° 0 mm 5 mps 753 mmHg 29%
18:00 +36°C° 0 mm 6 mps 753 mmHg 31%
19:00 +34°C° 0 mm 5 mps 753 mmHg 35%
20:00 +32°C° 0 mm 5 mps 753 mmHg 39%
21:00 +29°C° 0 mm 5 mps 754 mmHg 43%
22:00 +28°C° 0 mm 4 mps 754 mmHg 45%
23:00 +27°C° 0 mm 4 mps 754 mmHg 47%

Pasado mañana, 15 Julio, Miércoles

Tiempo Temperatura Precipitaciones Viento Presión Humedad
00:00 +26°C° 0 mm 3 mps 754 mmHg 49%
01:00 +25°C° 0 mm 3 mps 754 mmHg 52%
02:00 +24°C° 0 mm 2 mps 754 mmHg 55%
03:00 +23°C° 0 mm 2 mps 754 mmHg 58%
04:00 +24°C° 0 mm 2 mps 754 mmHg 61%
05:00 +24°C° 0 mm 2 mps 754 mmHg 64%
06:00 +24°C° 0 mm 2 mps 754 mmHg 67%
07:00 +26°C° 0 mm 3 mps 754 mmHg 58%
08:00 +29°C° 0 mm 3 mps 754 mmHg 49%
09:00 +31°C° 0 mm 3 mps 755 mmHg 39%
10:00 +35°C° 0 mm 3 mps 755 mmHg 34%
11:00 +37°C° 0 mm 3 mps 755 mmHg 29%
12:00 +39°C° 0 mm 3 mps 755 mmHg 24%
13:00 +40°C° 0 mm 4 mps 754 mmHg 24%
14:00 +40°C° 0 mm 5 mps 754 mmHg 25%
15:00 +40°C° 0 mm 6 mps 754 mmHg 25%
16:00 +39°C° 0 mm 6 mps 754 mmHg 30%
17:00 +36°C° 0 mm 6 mps 753 mmHg 34%
18:00 +35°C° 0 mm 6 mps 753 mmHg 38%
19:00 +33°C° 0 mm 5 mps 754 mmHg 44%
20:00 +30°C° 0 mm 4 mps 754 mmHg 49%
21:00 +28°C° 0 mm 3 mps 755 mmHg 55%
22:00 +27°C° 0 mm 3 mps 755 mmHg 57%
23:00 +26°C° 0 mm 3 mps 755 mmHg 59%

16 Julio, Jueves

Tiempo Temperatura Precipitaciones Viento Presión Humedad
00:00 +26°C° 0 mm 3 mps 755 mmHg 62%
01:00 +25°C° 0 mm 3 mps 755 mmHg 63%
02:00 +24°C° 0 mm 3 mps 755 mmHg 65%
03:00 +24°C° 0 mm 3 mps 755 mmHg 67%
04:00 +24°C° 0 mm 3 mps 755 mmHg 65%
05:00 +24°C° 0 mm 3 mps 755 mmHg 62%
06:00 +25°C° 0 mm 3 mps 755 mmHg 60%
07:00 +27°C° 0 mm 3 mps 756 mmHg 52%
08:00 +30°C° 0 mm 3 mps 756 mmHg 43%
09:00 +34°C° 0 mm 3 mps 756 mmHg 34%
10:00 +36°C° 0 mm 3 mps 756 mmHg 30%
11:00 +38°C° 0 mm 3 mps 756 mmHg 26%
12:00 +40°C° 0 mm 3 mps 756 mmHg 22%
13:00 +41°C° 0 mm 4 mps 755 mmHg 23%
14:00 +41°C° 0 mm 5 mps 755 mmHg 23%
15:00 +41°C° 0 mm 6 mps 755 mmHg 24%
16:00 +40°C° 0 mm 6 mps 755 mmHg 27%
17:00 +38°C° 0 mm 6 mps 754 mmHg 31%
18:00 +36°C° 0 mm 6 mps 754 mmHg 35%
19:00 +33°C° 0 mm 5 mps 755 mmHg 42%
20:00 +30°C° 0 mm 4 mps 755 mmHg 49%
21:00 +28°C° 0 mm 3 mps 756 mmHg 56%
22:00 +27°C° 0 mm 4 mps 756 mmHg 60%
23:00 +26°C° 0 mm 5 mps 756 mmHg 64%

17 Julio, Viernes

Tiempo Temperatura Precipitaciones Viento Presión Humedad
00:00 +26°C° 0 mm 6 mps 756 mmHg 67%
01:00 +25°C° 0 mm 5 mps 756 mmHg 71%
02:00 +23°C° 0 mm 4 mps 756 mmHg 76%
03:00 +23°C° 0 mm 4 mps 756 mmHg 80%
04:00 +24°C° 0 mm 3 mps 756 mmHg 80%
05:00 +24°C° 0 mm 3 mps 756 mmHg 79%
06:00 +24°C° 0 mm 3 mps 756 mmHg 79%
07:00 +26°C° 0 mm 3 mps 756 mmHg 67%
08:00 +29°C° 0 mm 3 mps 756 mmHg 54%
09:00 +31°C° 0 mm 2 mps 756 mmHg 42%
10:00 +34°C° 0 mm 3 mps 756 mmHg 38%
11:00 +36°C° 0 mm 3 mps 756 mmHg 33%
12:00 +37°C° 0 mm 3 mps 756 mmHg 29%
13:00 +38°C° 0 mm 4 mps 756 mmHg 29%
14:00 +38°C° 0 mm 4 mps 755 mmHg 29%
15:00 +39°C° 0 mm 5 mps 755 mmHg 29%
16:00 +39°C° 0 mm 5 mps 755 mmHg 30%
17:00 +37°C° 0 mm 5 mps 754 mmHg 32%
18:00 +36°C° 0 mm 5 mps 754 mmHg 33%
19:00 +35°C° 0 mm 5 mps 755 mmHg 36%
20:00 +33°C° 0 mm 4 mps 755 mmHg 39%
21:00 +30°C° 0 mm 4 mps 756 mmHg 42%
22:00 +28°C° 0 mm 3 mps 756 mmHg 44%
23:00 +27°C° 0 mm 3 mps 756 mmHg 46%

18 Julio, Sábado

Tiempo Temperatura Precipitaciones Viento Presión Humedad
00:00 +26°C° 0 mm 2 mps 756 mmHg 48%
01:00 +25°C° 0 mm 2 mps 756 mmHg 53%
02:00 +24°C° 0 mm 3 mps 756 mmHg 59%
03:00 +22°C° 0 mm 3 mps 755 mmHg 65%
04:00 +22°C° 0 mm 3 mps 756 mmHg 69%
05:00 +24°C° 0 mm 3 mps 756 mmHg 74%
06:00 +24°C° 0 mm 3 mps 756 mmHg 78%
07:00 +26°C° 0 mm 3 mps 756 mmHg 69%
08:00 +28°C° 0 mm 4 mps 756 mmHg 61%
09:00 +30°C° 0 mm 4 mps 757 mmHg 52%
10:00 +32°C° 0 mm 4 mps 756 mmHg 48%
11:00 +34°C° 0 mm 4 mps 756 mmHg 44%
12:00 +35°C° 0 mm 4 mps 756 mmHg 41%
13:00 +35°C° 0 mm 4 mps 756 mmHg 39%
14:00 +36°C° 0 mm 5 mps 755 mmHg 38%
15:00 +36°C° 0 mm 5 mps 755 mmHg 36%
16:00 +35°C° 0 mm 5 mps 755 mmHg 39%
17:00 +34°C° 0 mm 5 mps 755 mmHg 42%
18:00 +33°C° 0 mm 5 mps 755 mmHg 44%
19:00 +30°C° 0 mm 4 mps 755 mmHg 48%
20:00 +28°C° 0 mm 4 mps 755 mmHg 52%
21:00 +26°C° 0 mm 3 mps 756 mmHg 57%
22:00 +25°C° 0 mm 3 mps 756 mmHg 57%
23:00 +24°C° 0 mm 3 mps 756 mmHg 58%
Mostrar más